User: anonymous   Login
Location: Unspecified
(0.0000°N, 0.0000°E)
Time: 08:39:11
(UTC+01:00)
Language:

GPS 2-05 Rocket1 - Orbit

View from above orbital plane
View from above orbital plane
View from above satellite
View from above satellite

Ground track
Ground track

The orbit data is extracted from the following two-line orbital elements,

1 20362U 89097B   17057.91397045 +.00009425 +00000-0 +15147-3 0  9995
2 20362 035.6065 232.6730 0058027 015.5075 138.1957 15.50321631483138
Epoch (UTC): 26 February 2017 21:56:07
Eccentricity: 0.0058027
inclination: 35.6065°
perigee height: 376 km
apogee height: 455 km
right ascension of ascending node: 232.6730°
argument of perigee: 15.5075°
revolutions per day: 15.50321631
mean anomaly at epoch: 138.1957°
orbit number at epoch: 48313

The dashed part of the orbit path shows where the satellite is in the earth's shadow,  

DLR